• Em Portugal
  • Lista de países
  • Para 7 dias
  • Temperatura da água
  • Mapas de satélite
  • Mapa do tempo
  • Widgets de tempo
  • user-avatar
    Iniciar Sessão

    Previsão horária em Tebriz

    Hoje, 16 Julho, Segunda-feira

    Tempo Temperatura Precipitação Vento Pressão Humidade
    00:00 +26°C° 0 mm 2 m/s 640 mmHg 41%
    01:00 +25°C° 0 mm 1 m/s 640 mmHg 44%
    02:00 +24°C° 0 mm 1 m/s 640 mmHg 47%
    03:00 +24°C° 0 mm 1 m/s 640 mmHg 51%
    04:00 +24°C° 0 mm 1 m/s 640 mmHg 51%
    05:00 +24°C° 0 mm 1 m/s 640 mmHg 51%
    06:00 +25°C° 0 mm 1 m/s 641 mmHg 51%
    07:00 +26°C° 0 mm 1 m/s 641 mmHg 45%
    08:00 +28°C° 0 mm 1 m/s 641 mmHg 39%
    09:00 +29°C° 0 mm 1 m/s 642 mmHg 32%
    10:00 +30°C° 0 mm 2 m/s 642 mmHg 29%
    11:00 +31°C° 0 mm 2 m/s 642 mmHg 25%
    12:00 +34°C° 0 mm 3 m/s 642 mmHg 21%
    13:00 +34°C° 0 mm 3 m/s 642 mmHg 20%
    14:00 +34°C° 0 mm 4 m/s 642 mmHg 19%
    15:00 +35°C° 0 mm 4 m/s 642 mmHg 18%
    16:00 +34°C° 0 mm 4 m/s 641 mmHg 20%
    17:00 +34°C° 0 mm 4 m/s 641 mmHg 22%
    18:00 +33°C° 0 mm 4 m/s 641 mmHg 24%
    19:00 +30°C° 0 mm 4 m/s 641 mmHg 31%
    20:00 +29°C° 0 mm 4 m/s 641 mmHg 38%
    21:00 +27°C° 0 mm 5 m/s 641 mmHg 45%
    22:00 +26°C° 0 mm 4 m/s 641 mmHg 49%
    23:00 +25°C° 0 mm 4 m/s 641 mmHg 52%

    Amanhã, 17 Julho, Terça-feira

    Tempo Temperatura Precipitação Vento Pressão Humidade
    00:00 +23°C° 0 mm 4 m/s 641 mmHg 55%
    01:00 +23°C° 0 mm 4 m/s 641 mmHg 59%
    02:00 +22°C° 0 mm 3 m/s 641 mmHg 63%
    03:00 +22°C° 0 mm 3 m/s 641 mmHg 66%
    04:00 +22°C° 0 mm 3 m/s 641 mmHg 68%
    05:00 +22°C° 0 mm 3 m/s 641 mmHg 70%
    06:00 +22°C° 0 mm 3 m/s 642 mmHg 72%
    07:00 +23°C° 0 mm 4 m/s 642 mmHg 64%
    08:00 +26°C° 0 mm 4 m/s 642 mmHg 56%
    09:00 +27°C° 0 mm 4 m/s 643 mmHg 48%
    10:00 +29°C° 0 mm 4 m/s 643 mmHg 43%
    11:00 +30°C° 0 mm 4 m/s 643 mmHg 37%
    12:00 +33°C° 0 mm 4 m/s 643 mmHg 32%
    13:00 +33°C° 0,1 mm 3 m/s 642 mmHg 31%
    14:00 +34°C° 0,1 mm 3 m/s 642 mmHg 29%
    15:00 +34°C° 0,1 mm 3 m/s 642 mmHg 28%
    16:00 +33°C° 0,1 mm 4 m/s 641 mmHg 31%
    17:00 +32°C° 0,1 mm 4 m/s 641 mmHg 34%
    18:00 +30°C° 0,1 mm 5 m/s 641 mmHg 38%
    19:00 +29°C° 0 mm 5 m/s 641 mmHg 44%
    20:00 +28°C° 0 mm 4 m/s 641 mmHg 50%
    21:00 +26°C° 0 mm 4 m/s 641 mmHg 56%
    22:00 +25°C° 0 mm 4 m/s 641 mmHg 58%
    23:00 +25°C° 0 mm 4 m/s 641 mmHg 61%

    Depois de amanhã, 18 Julho, Quarta-feira

    Tempo Temperatura Precipitação Vento Pressão Humidade
    00:00 +23°C° 0 mm 4 m/s 642 mmHg 64%
    01:00 +23°C° 0 mm 4 m/s 641 mmHg 66%
    02:00 +22°C° 0 mm 3 m/s 641 mmHg 67%
    03:00 +22°C° 0 mm 3 m/s 641 mmHg 69%
    04:00 +22°C° 0 mm 3 m/s 641 mmHg 68%
    05:00 +22°C° 0 mm 3 m/s 641 mmHg 67%
    06:00 +22°C° 0 mm 3 m/s 642 mmHg 66%
    07:00 +25°C° 0 mm 3 m/s 642 mmHg 58%
    08:00 +27°C° 0 mm 3 m/s 643 mmHg 50%
    09:00 +29°C° 0 mm 3 m/s 643 mmHg 41%
    10:00 +31°C° 0 mm 3 m/s 643 mmHg 36%
    11:00 +34°C° 0 mm 3 m/s 643 mmHg 30%
    12:00 +36°C° 0 mm 3 m/s 643 mmHg 24%
    13:00 +37°C° 0 mm 3 m/s 643 mmHg 21%
    14:00 +38°C° 0 mm 4 m/s 643 mmHg 19%
    15:00 +39°C° 0 mm 5 m/s 643 mmHg 16%
    16:00 +38°C° 0 mm 4 m/s 643 mmHg 17%
    17:00 +38°C° 0 mm 3 m/s 642 mmHg 17%
    18:00 +37°C° 0 mm 3 m/s 642 mmHg 18%
    19:00 +35°C° 0 mm 3 m/s 642 mmHg 24%
    20:00 +33°C° 0 mm 3 m/s 642 mmHg 31%
    21:00 +30°C° 0 mm 3 m/s 642 mmHg 38%
    22:00 +29°C° 0 mm 3 m/s 642 mmHg 43%
    23:00 +28°C° 0 mm 3 m/s 642 mmHg 48%

    19 Julho, Quinta-feira

    Tempo Temperatura Precipitação Vento Pressão Humidade
    00:00 +27°C° 0 mm 3 m/s 642 mmHg 53%
    01:00 +26°C° 0 mm 2 m/s 642 mmHg 53%
    02:00 +26°C° 0 mm 2 m/s 641 mmHg 54%
    03:00 +26°C° 0 mm 2 m/s 641 mmHg 54%
    04:00 +26°C° 0 mm 2 m/s 642 mmHg 53%
    05:00 +26°C° 0 mm 2 m/s 642 mmHg 51%
    06:00 +27°C° 0 mm 2 m/s 642 mmHg 50%
    07:00 +29°C° 0 mm 2 m/s 643 mmHg 43%
    08:00 +31°C° 0 mm 2 m/s 643 mmHg 35%
    09:00 +34°C° 0 mm 2 m/s 644 mmHg 28%
    10:00 +36°C° 0 mm 2 m/s 644 mmHg 23%
    11:00 +37°C° 0 mm 2 m/s 644 mmHg 19%
    12:00 +39°C° 0 mm 3 m/s 644 mmHg 15%
    13:00 +39°C° 0 mm 3 m/s 644 mmHg 14%
    14:00 +41°C° 0 mm 4 m/s 644 mmHg 12%
    15:00 +42°C° 0 mm 4 m/s 643 mmHg 11%
    16:00 +41°C° 0 mm 4 m/s 643 mmHg 12%
    17:00 +40°C° 0 mm 3 m/s 643 mmHg 13%
    18:00 +39°C° 0 mm 3 m/s 643 mmHg 14%
    19:00 +37°C° 0 mm 3 m/s 643 mmHg 21%
    20:00 +35°C° 0 mm 3 m/s 643 mmHg 28%
    21:00 +33°C° 0 mm 3 m/s 643 mmHg 35%
    22:00 +31°C° 0 mm 3 m/s 642 mmHg 40%
    23:00 +30°C° 0 mm 3 m/s 642 mmHg 45%

    20 Julho, Sexta-feira

    Tempo Temperatura Precipitação Vento Pressão Humidade
    00:00 +29°C° 0 mm 3 m/s 642 mmHg 51%
    01:00 +28°C° 0 mm 3 m/s 642 mmHg 51%
    02:00 +27°C° 0 mm 2 m/s 642 mmHg 52%
    03:00 +27°C° 0 mm 2 m/s 642 mmHg 52%
    04:00 +27°C° 0 mm 2 m/s 642 mmHg 51%
    05:00 +27°C° 0 mm 2 m/s 642 mmHg 51%
    06:00 +27°C° 0 mm 2 m/s 642 mmHg 50%
    07:00 +29°C° 0 mm 3 m/s 643 mmHg 43%
    08:00 +31°C° 0 mm 3 m/s 643 mmHg 36%
    09:00 +35°C° 0 mm 3 m/s 643 mmHg 29%
    10:00 +36°C° 0 mm 3 m/s 643 mmHg 25%
    11:00 +38°C° 0 mm 3 m/s 644 mmHg 21%
    12:00 +40°C° 0 mm 3 m/s 644 mmHg 17%
    13:00 +40°C° 0 mm 3 m/s 643 mmHg 15%
    14:00 +42°C° 0 mm 4 m/s 643 mmHg 13%
    15:00 +43°C° 0 mm 4 m/s 643 mmHg 11%
    16:00 +42°C° 0 mm 4 m/s 643 mmHg 13%
    17:00 +42°C° 0 mm 4 m/s 642 mmHg 14%
    18:00 +40°C° 0 mm 3 m/s 642 mmHg 15%
    19:00 +38°C° 0 mm 3 m/s 642 mmHg 23%
    20:00 +35°C° 0 mm 3 m/s 642 mmHg 30%
    21:00 +33°C° 0 mm 3 m/s 641 mmHg 38%
    22:00 +31°C° 0 mm 3 m/s 641 mmHg 40%
    23:00 +30°C° 0 mm 3 m/s 641 mmHg 43%

    21 Julho, Sábado

    Tempo Temperatura Precipitação Vento Pressão Humidade
    00:00 +29°C° 0 mm 3 m/s 641 mmHg 45%
    01:00 +29°C° 0 mm 2 m/s 641 mmHg 45%
    02:00 +28°C° 0 mm 2 m/s 640 mmHg 46%
    03:00 +27°C° 0 mm 2 m/s 640 mmHg 46%
    04:00 +28°C° 0 mm 2 m/s 641 mmHg 47%
    05:00 +28°C° 0 mm 2 m/s 641 mmHg 47%
    06:00 +28°C° 0 mm 2 m/s 641 mmHg 48%
    07:00 +30°C° 0 mm 2 m/s 641 mmHg 42%
    08:00 +33°C° 0 mm 3 m/s 642 mmHg 36%
    09:00 +35°C° 0 mm 3 m/s 642 mmHg 30%
    10:00 +36°C° 0 mm 3 m/s 642 mmHg 26%
    11:00 +38°C° 0 mm 3 m/s 642 mmHg 21%
    12:00 +39°C° 0 mm 2 m/s 642 mmHg 17%
    13:00 +40°C° 0 mm 3 m/s 642 mmHg 16%
    14:00 +42°C° 0 mm 3 m/s 642 mmHg 14%
    15:00 +42°C° 0 mm 4 m/s 642 mmHg 12%
    16:00 +41°C° 0 mm 4 m/s 642 mmHg 15%
    17:00 +40°C° 0 mm 5 m/s 641 mmHg 18%
    18:00 +39°C° 0 mm 5 m/s 641 mmHg 22%
    19:00 +36°C° 0 mm 5 m/s 641 mmHg 28%
    20:00 +33°C° 0 mm 5 m/s 641 mmHg 34%
    21:00 +30°C° 0 mm 5 m/s 641 mmHg 40%
    22:00 +29°C° 0 mm 5 m/s 641 mmHg 42%
    23:00 +29°C° 0 mm 4 m/s 641 mmHg 45%
    Mostrar mais